Location: Bon Acre
(42.6442°N, 73.5758°W)
Time: 07:24:42
(UTC+00:00)

Cosmos 2058 Rocket - Pass Details

Date: 14 December 2025
Orbit: 603 x 633 km, 82.5° (Epoch: 13 January)

Event Time Altitude Azimuth Distance (km) Brightness Sun altitude
Rises 21:47:18 0° 150° (SSE) 2,913 6.5 -5.0°
Reaches altitude 10° 21:50:00 10° 134° (SE) 2,012 5.5 -5.4°
Maximum altitude 21:53:15 20° 87° (E) 1,461 4.4 -6.0°
Drops below altitude 10° 21:56:31 10° 40° (NE) 2,023 5.1 -6.5°
Enters shadow 21:58:43 - 26° (NNE) 2,747 5.9 -6.9°
